Vichy, MO

7:36 AM CST on February 13, 2016 (GMT -0600)
Rolla National

Weather History for KVIH - February, 2013

Change the Weather History Date:

Wednesday, February 20, 2013

  Actual Average Record
Temperature  
Mean Temperature 23 °F 37 °F  
Max Temperature 29 °F 47 °F 74 °F (1996)
Min Temperature 17 °F 27 °F 6 °F (1903)
Degree Days  
Heating Degree Days 42 28  
Month to date heating degree days 581 610  
Since 1 July heating degree days 3309 3578  
Cooling Degree Days 0 0  
Month to date cooling degree days 0 0  
Year to date cooling degree days 0 0  
Moisture  
Dew Point 9 °F    
Average Humidity 57    
Maximum Humidity 67    
Minimum Humidity 46    
Precipitation  
Precipitation 0.00 in 0.07 in 0.69 in (1951)
Month to date precipitation 0.65 1.32  
Year to date precipitation 3.12 3.49  
Sea Level Pressure  
Sea Level Pressure 30.30 in    
Wind  
Wind Speed 7 mph (NE)    
Max Wind Speed 10 mph    
Max Gust Speed 14 mph    
Visibility 10 miles    
Events      
T = Trace of Precipitation, MM = Missing Value Source: NWS Daily Summary

Daily Weather History Graph

Daily Weather History Graph

Search for Another Location

Airport or City:

Trip Planner

Search our weather history database for the weather conditions in past years. The results will help you decide how hot, cold, wet, or windy it might be!

Date:

Astronomy

Feb. 20, 2013 Rise Set
Actual Time 6:50 AM CST 5:51 PM CST
Civil Twilight 6:23 AM CST 6:18 PM CST
Nautical Twilight 5:53 AM CST 6:48 PM CST
Astronomical Twilight 5:22 AM CST 7:19 PM CST
Moon 1:15 PM CST (2/20) 3:08 AM CST (2/20)
Length of Visible Light 11h 54m
Length of Day
11h 00m
Waxing Gibbous, 76% of the Moon is Illuminated
Feb 20
Waxing Gibbous
Feb 25
Full
Mar 4
Last Quarter
Mar 11
New
Mar 19
First Quarter

Hourly Weather History & Observations

Time (CST) Temp. Windchill Dew Point Humidity Pressure Visibility Wind Dir Wind Speed Gust Speed Precip Events Conditions
12:53 AM 21.0 °F 13.4 °F 8.1 °F 57% 30.32 in 10.0 mi NW 5.8 mph - N/A   Clear
1:53 AM 19.9 °F 11.1 °F 7.0 °F 57% 30.32 in 10.0 mi WNW 6.9 mph - N/A   Clear
2:53 AM 19.9 °F 9.3 °F 7.0 °F 57% 30.29 in 10.0 mi North 9.2 mph - N/A   Clear
3:53 AM 19.0 °F 11.1 °F 7.0 °F 59% 30.32 in 10.0 mi NNW 5.8 mph - N/A   Clear
4:53 AM 17.1 °F 11.7 °F 8.1 °F 68% 30.32 in 10.0 mi NNW 3.5 mph - N/A   Clear
5:53 AM 18.0 °F 8.7 °F 7.0 °F 62% 30.34 in 10.0 mi NNW 6.9 mph - N/A   Clear
6:53 AM 17.1 °F 11.7 °F 7.0 °F 65% 30.35 in 10.0 mi North 3.5 mph - N/A   Clear
7:53 AM 18.0 °F 11.1 °F 7.0 °F 62% 30.38 in 10.0 mi NNW 4.6 mph - N/A   Clear
8:53 AM 19.4 °F 14.3 °F 8.6 °F 63% 30.34 in 10.0 mi NE 3.5 mph - N/A   Clear
9:53 AM 19.9 °F 11.1 °F 8.1 °F 60% 30.39 in 10.0 mi NNE 6.9 mph - N/A   Clear
10:53 AM 21.2 °F 14.9 °F 8.6 °F 58% 30.34 in 10.0 mi NNE 4.6 mph - N/A   Clear
11:53 AM 24.1 °F 19.7 °F 9.0 °F 53% 30.37 in 10.0 mi NE 3.5 mph - N/A   Clear
12:53 PM 25.0 °F 19.3 °F 9.0 °F 51% 30.35 in 10.0 mi East 4.6 mph - N/A   Scattered Clouds
1:53 PM 26.1 °F 18.4 °F 10.0 °F 51% 30.31 in 10.0 mi East 6.9 mph - N/A   Partly Cloudy
2:53 PM 27.0 °F 18.7 °F 10.0 °F 49% 30.27 in 10.0 mi NE 8.1 mph - N/A   Partly Cloudy
3:53 PM 28.0 °F 19.3 °F 10.9 °F 49% 30.26 in 10.0 mi ENE 9.2 mph - N/A   Overcast
4:53 PM 26.6 °F 18.2 °F 10.4 °F 51% 30.21 in 10.0 mi East 8.1 mph - N/A   Overcast
5:53 PM 26.1 °F 16.2 °F 12.0 °F 55% 30.25 in 10.0 mi ENE 10.4 mph - N/A   Overcast
6:53 PM 26.1 °F 17.6 °F 10.9 °F 53% 30.27 in 10.0 mi East 8.1 mph - N/A   Overcast
7:53 PM 26.1 °F 17.6 °F 12.0 °F 55% 30.26 in 10.0 mi ENE 8.1 mph - N/A   Overcast
8:53 PM 26.6 °F 17.5 °F 12.2 °F 55% 30.21 in 10.0 mi ENE 9.2 mph - N/A   Overcast
9:53 PM 24.1 °F 13.7 °F 12.0 °F 60% 30.25 in 10.0 mi ENE 10.4 mph - N/A   Overcast
10:53 PM 25.0 °F 14.8 °F 12.0 °F 58% 30.27 in 10.0 mi East 10.4 mph - N/A   Overcast
11:53 PM 24.1 °F 12.5 °F 12.0 °F 60% 30.25 in 10.0 mi East 12.7 mph - N/A   Overcast